RH
24 24 23 22 21 21 22 21 20 21 22 21 22 20 18 20 20 19 21 24 22 21 21 24 25 22 25 29 32 35 35 38 38 38 38 35 35 36 36 35 33 30 28 25 24 24 26 29 28 28 28 27 28 28 29 27 25 23 21 20 20 20 22 23 23 24 23 23 22 24 27 28 29 30 31 33 32 31 30 27 30 34 33 32 30 30 31 31 31 31 31 29 27 26 27 29 30
23 24 24 23 22 22 22 22 21 21 21 20 20 20 19 20 19 18 19 24 24 22 22 24 26 24 23 27 30 32 33 34 35 34 34 34 36 37 36 34 33 30 27 24 24 25 27 29 27 27 27 27 27 28 30 27 25 24 21 21 20 21 22 24 25 25 24 23 22 24 27 28 29 29 30 33 32 31 30 28 32 35 33 31 30 30 30 31 30 30 30 29 28 28 28 27 31
21 23 23 23 24 24 23 21 21 20 19 17 17 19 19 19 17 16 17 19 23 23 23 22 24 26 27 30 31 31 31 33 35 35 34 36 36 35 36 33 31 29 25 23 23 25 28 29 27 26 27 27 26 28 29 28 26 24 22 21 21 22 23 26 26 26 24 24 23 23 26 28 28 28 29 32 32 31 29 28 33 34 32 31 31 30 31 31 30 29 28 28 28 28 27 28 35
18 19 19 21 23 24 23 21 21 20 16 15 14 17 19 19 18 17 16 16 19 22 23 23 25 28 31 34 33 32 32 32 35 35 35 35 34 33 34 32 29 27 24 23 22 25 28 29 27 26 27 27 26 27 29 28 26 25 23 21 21 23 25 27 27 27 25 24 23 23 25 26 27 27 27 30 31 31 28 28 32 33 31 31 31 31 32 32 32 30 28 27 27 27 28 33 39
15 16 15 17 20 20 20 19 19 16 13 14 14 15 18 20 20 18 17 17 18 20 22 23 27 30 33 35 34 35 34 33 35 36 35 35 35 32 31 31 29 27 24 22 22 25 28 29 28 27 27 27 27 27 29 28 27 25 23 22 22 24 26 27 28 27 25 24 24 21 23 25 26 26 26 27 28 28 28 29 32 31 30 30 30 32 33 33 32 31 28 25 26 27 31 38 41
13 14 14 15 17 16 15 15 15 14 12 13 13 14 18 21 22 21 19 18 17 17 18 20 25 30 33 34 34 38 38 36 37 37 36 37 37 33 30 30 28 26 23 21 23 25 28 29 28 28 27 28 27 27 29 28 27 26 23 23 24 26 26 28 29 28 26 24 24 21 23 26 26 26 25 26 25 24 26 29 31 30 29 29 29 31 31 30 29 28 27 26 27 31 35 41 42
13 13 14 15 16 14 15 14 12 13 12 12 12 14 17 20 21 21 21 19 17 16 17 17 21 27 31 33 35 38 39 39 40 38 37 38 38 35 31 29 27 24 22 22 23 25 28 29 29 28 28 28 28 28 29 28 28 26 24 24 25 26 27 28 30 29 26 24 24 22 23 26 26 25 25 24 24 23 24 28 31 30 28 27 28 29 27 25 26 26 27 27 30 34 39 43 40
12 12 14 16 17 15 16 14 11 11 11 11 12 12 14 16 18 19 20 20 18 17 18 18 20 24 27 32 36 39 41 40 41 40 39 39 38 35 31 29 26 24 23 22 23 25 26 28 28 28 28 29 28 28 29 29 29 26 24 25 26 26 26 29 31 30 27 24 24 21 22 25 24 25 24 24 23 23 25 28 29 28 27 26 25 24 22 21 24 25 26 28 32 37 42 43 41
11 12 12 15 16 15 15 13 11 10 10 10 10 10 10 11 12 13 16 18 19 18 18 20 22 24 27 32 33 36 38 38 40 42 41 40 37 34 32 29 27 25 23 22 22 23 25 27 28 28 29 30 29 29 30 30 29 26 25 26 26 26 27 30 32 31 26 23 22 20 20 22 22 23 23 22 21 22 26 27 26 26 26 24 21 20 18 19 22 24 27 30 35 39 42 42 42
10 11 11 14 15 13 12 11 11 10 10 9 9 8 8 8 8 9 9 12 17 18 19 20 22 25 30 34 32 32 34 34 37 40 40 38 37 35 32 29 27 26 23 20 20 22 24 26 28 29 29 30 29 29 30 30 29 25 25 27 26 26 27 30 32 30 26 22 20 18 18 20 20 21 21 21 20 21 25 26 25 24 23 21 18 17 16 18 22 25 30 33 36 39 40 41 42
11 12 10 12 13 12 10 10 10 10 10 10 9 8 7 8 7 7 7 7 11 16 19 21 23 25 32 36 32 32 33 34 37 38 38 38 37 35 31 28 26 24 20 18 19 22 24 25 27 29 30 30 29 29 30 31 28 25 26 27 26 26 28 31 32 29 25 21 19 17 16 18 19 20 20 20 20 20 24 26 24 22 21 19 16 15 15 18 22 26 30 32 35 37 38 40 42
10 13 11 11 11 10 9 9 9 10 10 10 9 8 8 8 8 7 7 6 6 10 15 19 21 24 36 41 34 33 34 34 38 39 38 39 39 34 31 29 26 22 19 18 19 21 23 24 26 29 31 30 28 29 31 31 28 25 28 28 26 26 29 31 31 29 25 19 17 16 14 17 19 20 20 20 20 19 22 24 23 21 19 17 15 14 14 17 21 24 27 29 32 34 37 39 41
10 13 13 11 11 10 9 10 11 12 11 9 8 8 8 8 8 7 7 7 6 6 10 16 20 23 34 39 34 32 33 33 36 38 39 40 39 35 31 31 27 22 20 19 19 20 22 24 25 29 32 31 29 30 31 31 28 27 29 28 26 27 29 31 31 29 24 17 16 15 14 17 19 20 20 20 20 19 21 23 22 20 18 16 14 14 14 15 19 22 25 27 29 31 34 36 39
10 12 11 12 13 11 10 10 11 11 9 7 6 6 7 8 8 8 8 8 7 6 7 13 18 24 31 35 33 30 30 32 35 37 39 40 38 35 33 33 29 24 21 19 19 20 22 23 24 27 31 32 31 31 33 32 27 28 30 28 27 28 30 32 31 28 22 16 14 14 14 17 19 20 20 21 20 20 21 23 22 20 18 16 15 14 14 14 17 20 23 25 27 30 32 33 35
10 12 12 13 14 12 10 9 9 9 6 5 6 5 7 7 8 9 9 8 7 7 7 11 17 23 29 30 28 24 26 32 35 37 40 41 38 36 34 33 29 24 22 20 19 20 21 22 23 26 29 31 31 32 34 31 28 29 31 29 28 29 30 32 31 27 19 14 15 15 14 17 19 20 21 21 21 20 20 22 22 20 19 17 16 16 15 15 15 17 20 22 25 27 30 31 32
10 12 14 15 14 12 10 10 9 8 7 6 6 5 6 6 7 9 9 8 8 9 10 12 15 19 23 23 21 21 25 33 37 39 41 40 38 37 35 32 28 24 22 20 18 19 20 21 22 26 29 30 30 31 32 30 28 32 32 30 29 29 30 32 31 24 16 14 15 15 15 17 19 20 21 22 21 19 19 21 22 21 20 18 18 18 17 16 16 15 16 19 22 25 29 30 31
10 13 15 15 14 12 10 9 8 8 6 6 6 5 6 6 7 8 9 10 14 17 17 18 18 19 22 23 22 24 27 34 38 39 40 39 38 37 34 30 26 23 22 19 18 19 20 21 22 26 29 30 29 30 30 29 30 33 32 31 30 29 31 33 30 22 15 14 16 16 15 17 19 20 21 21 21 19 19 20 22 22 21 20 19 18 18 17 16 16 16 17 19 22 25 28 30
11 14 15 13 13 11 9 8 8 7 7 7 6 5 6 6 7 8 8 11 18 23 23 24 24 22 24 24 27 29 29 33 36 37 38 38 38 36 32 28 25 24 22 20 20 21 21 21 23 26 29 29 28 29 29 29 32 34 33 32 31 30 32 33 29 20 15 15 17 16 16 17 19 20 21 21 21 20 18 19 20 21 21 20 19 18 18 17 16 17 17 17 18 19 20 23 27
12 16 14 11 12 11 9 9 8 7 7 7 7 6 6 7 8 9 9 9 16 25 27 28 28 28 27 26 29 31 31 34 36 36 37 37 36 35 31 28 26 25 22 21 22 24 22 21 24 27 29 29 29 29 29 30 33 34 33 32 31 31 33 34 29 20 15 16 17 17 17 18 19 20 21 21 21 21 18 19 19 20 20 20 19 18 18 17 17 17 17 18 19 20 20 20 22
13 15 13 11 12 11 9 9 9 7 8 8 7 7 6 7 8 9 11 9 12 22 28 31 32 33 32 29 29 32 35 38 39 38 38 36 36 34 33 32 30 27 25 24 24 25 23 22 24 27 29 30 30 29 29 31 34 33 32 32 31 31 34 35 31 23 18 17 17 18 17 19 20 20 21 21 22 22 19 19 20 21 21 21 21 21 20 20 20 19 20 21 21 21 22 22 22
13 13 12 12 12 11 10 9 10 9 8 8 7 7 7 7 9 10 11 11 12 15 19 26 31 33 35 31 29 30 37 42 41 41 39 36 35 34 34 34 32 29 26 24 22 23 23 23 24 27 30 31 31 29 30 32 33 32 32 32 31 32 35 36 32 27 21 18 18 18 18 19 20 20 21 22 23 23 21 19 20 21 22 23 24 24 24 23 22 23 23 23 23 24 24 26 27
13 12 12 13 12 11 10 10 10 10 9 9 8 8 8 7 8 10 11 11 11 10 11 17 22 27 31 32 30 31 37 42 41 40 39 37 36 35 34 34 32 28 25 23 21 20 21 24 26 28 30 32 32 30 31 33 33 32 32 32 32 35 38 36 32 30 24 19 18 18 18 20 21 21 22 24 24 24 22 20 21 22 24 25 26 27 27 27 26 27 27 27 27 27 28 29 32
13 13 12 12 12 12 11 10 10 10 10 9 9 8 7 7 8 10 11 11 11 11 11 12 15 21 27 30 31 31 34 37 38 40 40 39 38 37 36 35 32 29 26 24 21 19 20 23 27 30 32 33 33 31 33 35 33 32 31 32 34 37 39 36 33 32 26 20 19 18 19 21 22 22 23 24 24 24 23 21 22 24 25 26 26 27 29 30 30 30 30 30 30 30 29 29 31
13 13 13 12 12 12 12 11 11 11 10 10 9 8 7 7 8 9 11 11 12 12 11 12 14 20 28 29 29 31 32 35 38 40 40 40 39 39 38 37 34 32 29 26 23 19 19 22 27 33 35 34 34 34 36 37 34 33 31 32 35 40 39 35 33 31 26 21 19 20 21 23 23 24 25 26 25 25 25 24 23 24 25 25 25 26 27 28 30 32 32 32 32 33 33 32 31
13 13 12 12 12 12 12 11 11 10 10 10 9 8 8 7 7 8 10 11 12 12 12 13 17 23 30 31 30 31 33 37 39 39 39 39 40 41 40 38 36 35 32 30 26 21 19 21 26 35 38 37 37 36 37 36 33 32 32 33 37 40 38 35 32 30 26 22 21 22 23 25 25 26 27 28 28 28 28 27 26 26 27 28 27 27 27 28 31 34 36 36 36 37 37 36 35
13 13 12 12 11 11 11 11 11 10 9 9 9 9 8 7 7 8 10 12 13 13 14 17 21 26 33 34 31 31 35 38 39 40 41 40 39 39 38 38 37 37 36 34 30 25 22 22 27 36 39 38 38 38 37 35 31 30 31 34 38 39 37 34 31 27 25 23 23 25 27 29 29 31 31 32 34 34 34 33 32 31 30 30 29 31 32 34 37 38 38 38 38 39 38 36 35
13 13 12 12 12 11 10 11 10 10 10 9 9 9 8 7 8 8 9 12 14 16 18 22 25 29 35 37 36 35 36 38 39 40 40 39 37 36 36 37 38 39 38 36 34 29 27 27 30 37 40 39 41 40 37 34 30 30 32 35 38 38 36 34 31 27 26 28 30 31 32 33 34 37 39 39 40 39 38 37 35 32 30 30 30 33 35 37 40 39 38 38 38 37 35 33 33
13 13 13 12 12 11 11 11 11 11 10 9 9 9 9 8 9 8 8 11 15 17 20 25 30 33 36 38 39 39 37 38 38 38 38 36 34 34 36 39 42 42 39 38 38 35 35 35 34 39 41 41 43 41 36 34 32 32 34 37 38 38 36 36 36 34 33 35 36 36 37 37 40 43 44 44 43 41 39 38 37 35 32 31 31 34 36 37 38 37 35 35 34 32 31 31 31
14 14 15 15 12 12 11 11 11 11 11 10 10 10 9 8 10 8 8 11 16 20 24 30 35 36 37 38 39 40 39 39 38 37 36 34 34 34 36 39 43 45 42 42 44 43 45 46 43 43 45 44 45 42 37 33 33 34 36 38 39 38 38 40 41 40 38 38 37 38 40 41 44 46 47 46 45 42 40 40 40 38 35 33 32 34 36 37 36 33 32 31 31 31 32 33 33
14 14 15 15 15 14 11 10 11 12 12 10 11 14 10 8 10 8 7 10 17 27 31 35 37 37 38 38 39 40 40 40 39 37 36 33 34 34 35 37 40 42 46 53 59 61 60 58 53 50 49 50 49 44 37 34 34 36 39 40 41 41 40 42 43 41 39 37 37 39 41 43 45 47 49 50 48 46 44 43 41 39 38 35 33 33 33 34 32 31 31 31 32 33 33 32 30
15 15 15 15 16 17 13 11 12 12 12 11 13 16 11 9 10 8 8 9 18 31 36 35 36 36 37 37 38 39 40 39 38 36 34 33 34 35 37 38 38 40 47 54 60 69 73 69 63 58 53 53 52 45 38 37 38 39 41 42 43 43 42 43 43 41 39 38 38 41 44 47 48 49 51 54 55 53 50 46 41 39 37 35 32 31 30 29 29 30 31 31 32 31 30 28 26
18 16 17 16 16 18 14 12 12 11 12 11 13 17 13 9 10 8 9 10 16 30 36 36 36 36 36 37 37 37 38 38 37 36 34 33 33 34 35 37 40 43 48 51 50 59 70 72 69 62 55 52 51 47 41 40 43 44 45 45 45 46 44 43 43 41 40 40 42 46 48 50 51 50 51 56 59 57 53 47 41 38 36 34 31 30 29 28 28 29 29 29 28 28 28 27 26
22 18 18 17 15 17 15 12 12 11 11 12 13 16 15 11 9 9 9 10 15 28 36 36 36 36 36 36 36 36 36 36 36 35 33 32 31 31 34 38 44 46 48 53 52 53 61 68 69 62 56 50 45 45 44 44 48 49 50 49 48 48 46 43 43 42 42 43 47 50 52 52 51 51 52 56 58 56 52 47 42 39 36 34 32 30 28 27 26 26 26 26 26 26 27 27 28
26 23 21 19 16 17 15 13 13 11 11 12 12 14 14 12 10 10 10 10 17 28 34 36 36 36 36 36 36 35 35 36 35 32 30 31 32 32 35 41 46 47 49 52 53 56 60 64 70 67 60 50 41 40 43 47 52 54 56 57 53 51 47 45 45 44 44 47 51 53 54 53 51 52 55 57 58 54 50 46 42 38 36 35 32 29 27 25 24 24 25 25 25 27 29 31 31
26 26 24 21 16 16 14 12 12 12 12 11 12 13 13 11 10 10 10 11 21 29 30 34 36 36 37 37 36 36 35 35 32 30 30 32 32 32 34 39 45 51 56 58 56 57 58 59 68 73 66 53 43 41 43 49 55 57 60 63 61 56 51 49 49 47 46 50 53 54 53 52 52 54 56 58 56 52 50 48 44 40 37 35 31 28 26 25 24 24 25 26 28 31 33 33 32
24 25 24 21 17 16 14 13 12 12 12 11 13 14 13 11 10 11 10 11 20 27 30 33 36 36 37 37 36 36 35 34 32 31 33 32 31 32 34 40 47 53 58 62 63 60 56 54 61 69 68 60 52 49 48 50 54 56 60 65 64 59 54 53 53 49 47 49 52 52 51 52 53 56 57 55 52 52 53 52 49 45 40 36 32 29 27 25 25 26 27 28 29 31 31 30 29
22 22 23 21 18 17 15 13 12 12 13 13 13 14 14 12 11 12 11 12 15 23 31 34 34 35 36 36 36 35 35 35 34 34 34 33 32 34 36 41 47 52 53 57 62 61 56 53 55 61 69 71 65 60 58 54 53 54 58 63 64 60 58 57 55 49 46 47 48 49 50 51 56 60 58 54 55 57 58 57 55 51 43 37 33 29 27 26 26 27 28 27 28 29 29 29 30
23 21 23 21 19 18 16 14 14 13 13 15 15 15 14 13 12 13 13 14 14 17 27 34 35 35 35 36 36 36 36 35 34 34 34 33 34 36 38 40 44 48 50 52 56 56 52 53 56 61 72 79 73 65 63 62 58 54 56 63 65 63 61 59 54 47 45 46 46 47 49 52 60 64 61 61 63 62 60 61 59 52 43 36 32 29 27 26 26 26 27 29 30 32 32 32 32
26 24 23 23 21 19 17 16 15 15 14 16 17 15 15 14 13 15 14 14 14 13 17 24 31 35 36 36 36 37 37 36 34 34 33 33 34 36 36 38 42 46 49 54 55 52 49 50 54 61 69 75 73 67 65 67 64 55 56 66 68 66 64 60 53 45 44 45 45 48 49 54 64 69 68 68 67 62 61 61 55 47 39 34 30 29 28 27 27 28 30 33 34 35 34 33 32
29 27 26 25 22 20 19 17 16 16 15 16 16 15 16 16 15 15 15 14 13 12 11 15 24 31 33 34 35 36 36 35 34 33 33 33 33 35 35 35 40 45 48 53 55 51 47 47 50 55 60 65 67 67 68 70 65 57 61 69 70 68 66 61 53 46 44 45 47 49 51 58 68 71 71 70 65 62 60 55 46 39 36 32 30 30 29 29 30 30 32 35 36 35 35 34 33
29 29 29 26 22 21 20 18 17 17 16 16 15 15 16 17 15 14 15 14 13 13 13 14 23 29 30 33 34 33 32 31 32 33 33 34 34 34 34 34 38 44 47 51 55 53 48 47 49 52 58 64 65 67 69 69 62 57 64 72 72 70 68 61 53 48 48 50 51 52 56 65 70 70 71 69 64 60 55 49 42 37 35 34 32 32 31 31 31 32 34 35 36 36 35 34 33
31 30 29 26 23 21 20 19 20 18 17 18 15 16 19 19 17 15 14 15 13 16 18 19 27 32 32 34 35 33 31 29 29 29 29 32 34 34 33 34 37 42 47 50 54 54 51 51 52 53 59 67 70 70 70 68 62 60 66 72 72 71 67 60 53 51 53 55 57 60 65 70 69 70 72 67 60 56 53 50 47 42 39 36 34 33 34 33 34 35 35 35 36 36 35 34 33
33 30 27 27 24 22 21 19 20 20 20 19 16 17 21 20 17 16 16 15 14 18 23 24 30 35 34 34 34 33 33 31 30 29 29 31 33 34 34 33 35 42 48 51 55 56 55 55 56 57 61 68 72 73 72 68 65 66 69 73 73 70 66 59 56 55 55 58 62 67 71 71 67 69 71 63 57 55 53 53 53 50 44 37 35 35 34 34 34 35 34 35 35 35 35 34 33
34 29 26 27 26 22 21 20 20 22 22 21 19 18 18 17 16 17 17 14 16 22 26 28 32 34 34 33 32 30 29 29 28 28 30 31 31 33 34 34 35 43 49 52 56 58 58 59 60 62 66 71 72 73 75 73 69 70 74 76 75 71 67 62 60 60 59 61 65 69 72 70 68 70 68 60 55 53 52 54 55 53 45 37 36 36 36 36 35 34 34 34 35 35 35 34 32
35 31 26 26 26 24 22 20 21 23 22 21 22 19 18 21 21 21 18 14 16 24 27 28 31 33 32 31 30 28 26 26 25 26 29 29 30 32 34 35 39 45 51 55 59 61 61 62 64 64 69 75 75 74 77 76 73 75 79 78 75 73 69 66 65 64 64 66 67 69 72 70 69 70 67 60 53 50 52 54 55 53 46 40 38 38 38 37 35 34 33 34 37 36 35 33 31
35 33 30 27 26 26 25 24 22 23 24 22 21 20 20 23 21 19 18 17 17 21 24 26 28 31 32 31 30 30 29 29 30 31 30 29 31 34 35 37 42 49 56 60 62 61 62 64 66 66 69 76 77 76 77 77 78 81 81 79 76 76 75 75 74 71 69 68 67 70 72 70 69 69 66 59 52 51 54 55 54 51 45 40 39 39 38 37 34 32 32 35 36 35 33 32 31
36 34 32 30 29 29 29 29 25 25 28 25 21 21 20 21 22 17 17 21 21 19 23 28 28 30 31 30 31 31 31 32 33 35 34 34 34 35 36 37 42 51 60 63 61 61 63 66 68 68 70 76 77 76 78 80 81 83 82 79 78 79 79 81 80 77 74 70 68 70 70 69 68 67 64 56 52 54 57 57 55 53 47 41 39 39 38 36 32 30 31 33 33 33 32 32 33
38 35 34 33 32 31 29 29 27 29 31 26 22 21 20 22 24 20 16 19 21 20 22 26 29 31 31 31 31 31 31 32 33 35 36 37 38 39 40 40 44 55 62 62 62 62 64 66 67 69 72 77 79 77 78 81 83 84 83 82 83 82 81 83 84 83 79 73 71 71 69 66 65 63 58 53 53 58 60 59 58 57 54 46 40 39 38 34 32 30 31 31 31 32 32 34 35
40 38 36 36 36 34 33 32 32 34 31 26 23 21 21 22 20 17 15 14 16 19 20 22 27 30 30 32 33 32 33 33 33 35 37 40 41 41 42 42 48 58 63 63 65 66 65 64 66 70 74 78 79 78 78 80 83 84 83 85 86 84 82 81 82 84 81 76 74 72 67 64 62 56 51 51 56 62 61 60 59 59 58 50 40 38 36 32 31 31 31 31 31 32 33 35 37
42 38 36 37 37 37 37 35 35 35 31 27 25 23 23 22 18 15 14 13 13 15 18 20 23 27 29 32 34 33 34 33 33 36 39 41 42 40 40 44 52 60 63 63 67 68 65 63 65 71 77 80 80 80 79 82 85 83 84 87 86 83 82 79 79 82 81 78 75 71 66 64 61 53 51 54 60 63 63 62 60 60 58 48 39 36 32 31 31 31 32 32 32 33 34 35 35
42 38 36 35 34 34 35 34 35 36 33 28 24 24 24 22 19 17 17 18 17 15 17 21 23 25 29 32 34 35 34 34 35 37 40 42 42 41 41 46 55 60 62 64 68 68 65 65 67 72 79 80 79 81 82 84 86 83 84 87 86 84 81 78 79 81 80 78 74 69 68 70 67 59 57 60 63 64 63 63 61 58 53 44 37 34 30 30 31 32 33 34 34 35 35 35 35
43 39 37 34 32 34 35 34 37 37 31 28 25 25 26 23 19 21 25 28 28 25 25 27 29 30 31 32 34 35 35 36 36 38 40 43 45 45 45 51 58 61 62 66 69 68 66 67 68 72 79 81 80 83 84 84 85 83 84 86 85 84 81 79 79 80 79 77 73 71 75 78 76 68 64 64 65 64 64 63 60 54 47 40 36 31 29 30 32 33 35 35 35 35 35 36 36
45 40 37 34 32 35 34 32 37 37 29 29 27 23 24 23 18 22 28 31 33 34 33 32 33 33 33 33 33 34 37 37 38 39 40 43 47 48 50 55 60 62 64 67 70 69 67 67 69 72 76 79 81 84 85 85 84 85 87 87 85 82 80 79 79 79 79 77 75 77 79 81 81 74 69 67 66 64 64 64 60 52 44 39 35 30 29 31 34 36 37 36 36 35 35 36 35
42 40 38 35 32 35 35 34 39 38 32 31 29 22 21 23 23 24 24 25 31 37 36 35 36 35 34 34 33 35 37 38 40 40 41 45 48 50 52 56 60 62 64 69 71 69 68 67 68 69 72 76 80 82 85 86 87 88 87 85 83 80 78 79 77 77 78 77 78 80 79 81 83 78 73 72 68 65 65 65 60 52 44 39 34 30 31 34 36 37 37 36 36 35 36 36 34
39 39 38 37 36 36 35 35 39 37 32 32 29 25 24 22 24 25 20 21 30 36 37 36 36 36 35 34 34 35 36 38 40 41 43 47 48 50 53 57 61 61 64 69 70 69 69 68 68 69 70 73 76 79 84 87 88 89 86 81 81 79 77 78 77 75 77 78 79 80 79 82 84 80 78 75 69 65 66 66 62 53 45 40 34 31 33 37 38 38 37 37 36 36 36 35 34
39 39 36 36 38 36 31 33 37 34 36 37 29 26 27 23 24 25 21 23 31 36 38 37 36 37 36 35 36 36 37 37 39 42 46 48 48 50 54 59 62 61 63 68 68 68 69 68 69 70 71 75 78 79 83 86 86 86 83 81 80 79 79 80 77 76 77 79 79 80 81 82 82 81 80 75 68 65 67 67 62 53 45 40 35 33 36 39 39 40 39 38 37 37 36 35 34
37 37 36 35 35 33 30 32 32 31 39 44 35 30 29 26 26 27 24 27 34 37 39 38 38 38 37 37 37 38 38 38 39 43 46 48 50 52 55 59 61 60 62 66 66 67 68 67 69 71 73 78 82 80 81 86 89 85 81 81 82 82 82 80 76 77 78 78 78 80 81 81 81 82 80 74 67 66 68 66 62 54 45 39 35 36 40 41 41 41 40 39 38 37 36 35 35
35 35 36 36 36 35 33 34 32 29 35 40 36 34 30 25 27 28 26 31 36 38 39 38 38 38 38 39 39 39 41 40 41 44 46 49 52 55 56 58 59 59 62 65 66 67 67 67 67 70 75 80 82 82 83 87 91 86 81 84 85 84 82 78 77 76 77 77 76 78 80 79 81 83 80 73 68 68 68 67 63 53 43 38 38 40 42 42 42 41 40 39 38 38 37 36 36